DMSP 5D-2 F13 DEB, 40401

Orbit data source: Space-Track

DMSP 5D-2 F13 DEB, 40401 is space debris in SSO originally from a launch on Fri, 24 Mar 1995 UTC launched from the Air Force Western Test Range (AFWTR). Debris objects in space refer to the collection of defunct objects orbiting the Earth. Examples of debris include non-operational satellites, rocket bodies, and fragments generated from explosions, collisions, or faulty payload assembly.

Loading next visibility...
Identifier
40401, 1995-015N
Orbit
SSO
Country
Flag of USUS
Related business
Manufacturer
Unknown
Mission
Spacecraft
Bus & Motor
Unknown
Mass
Unknown
Launch date (UTC)
1995-03-24 (31 years ago)
Launch vehicle
Unknown
Launch site
Air Force Western Test Range (AFWTR)
Object type
Payload
Rocket body
Debris
Shape & HBR
Unknown shape, 0.1 m
Radar Cross Section
Medium (>0.1 m² and <1 m²)

Expand to show TLE details & history
Last TLE update: 3 days ago

TLE from 3 days ago
0 DMSP 5D-2 F13 DEB
1 40401U 95015N   26170.16237706  .00002542  00000-0  11814-2 0  9997
2 40401  98.9724 150.6658 0052136 115.6816 244.9757 14.20803828580957
Epoch: 2026-06-19T03:53Z
TLE epoch observation values (Epoch: 2026-06-19T03:53:49.377Z)
Latitude
-0.00006°
Longitude
-175.18524°
Altitude
841.587 km
Speed
7.424 km/s
True Right ascension
10h 02m 39s
True Declination
0° 00' 00"
Sunlit
Object was in daylight at epoch
Visualization orbit readout
Latitude
Unknown
Longitude
Unknown
Altitude
Unknown
Speed
Unknown
Apparent Right ascension
Unknown
Apparent Declination
Unknown
Sunlit
N/A
Visualization observer readout
Local Sidereal Time
10:15:23
Azimuth
Unknown
Elevation
Unknown
Doppler factor
Unknown
Orbital elements
Apogee altitude
857.333 km
Perigee altitude
782.279 km
Semi-major axis
7,197.943 km
Eccentricity
0.00521
Inclination
98.9724°
RAAN
150.6658°
Arg. of periapsis
115.6816°
True anomaly
244.43584°
Mean anomaly
244.9757°
Eccentric anomaly
244.70562°
Mean motion
3.55411 °/min
Orbital period
101.29 mins
BSTAR
0.0011814
Loading maneuver chart data...
Computing Atmospheric mass density...

Documentation

Showing up to 5 results
|